Location: ČR
(50.0000°N, 15.0000°E)
Time: 23:46:35
(UTC+01:00)

ISS - Visible Passes

Search period start: 12 January 2026 00:00
Search period end: 22 January 2026 00:00
Orbit: 413 x 424 km, 51.6° (Epoch: 12 January)

Date Brightness Start Highest point End Pass type
(mag) Time Alt. Az. Time Alt. Az. Time Alt. Az.
12 Jan -1.3 17:51:44 10° SE 17:52:15 10° SE 17:52:26 10° SE visible
12 Jan -0.6 19:25:09 10° SW 19:25:24 12° SW 19:25:24 12° SW visible
13 Jan -2.2 18:37:45 10° SSW 18:39:53 27° S 18:39:53 27° S visible
14 Jan -2.2 17:50:31 10° SSW 17:53:12 23° SE 17:54:17 19° ESE visible
14 Jan -0.9 19:26:20 10° WSW 19:27:15 17° WSW 19:27:15 17° WSW visible
15 Jan -1.6 17:03:36 10° S 17:05:39 16° SE 17:07:44 10° E visible
15 Jan -3.4 18:38:39 10° WSW 18:41:34 57° SSW 18:41:34 57° SSW visible
16 Jan -3.2 17:51:03 10° SW 17:54:16 46° SSE 17:55:50 25° E visible
16 Jan -1.0 19:27:40 10° W 19:28:47 19° W 19:28:47 19° W visible
17 Jan -2.6 17:03:35 10° SSW 17:06:36 32° SSE 17:09:38 10° E visible
17 Jan -3.7 18:39:52 10° W 18:43:00 74° WNW 18:43:00 74° WNW visible
18 Jan -3.8 17:52:04 10° WSW 17:55:25 83° SSE 17:57:11 26° ENE visible
18 Jan -1.0 19:29:00 10° W 19:30:07 19° WNW 19:30:07 19° WNW visible
19 Jan -3.5 17:04:20 10° WSW 17:07:38 63° SSE 17:10:57 10° ENE visible
19 Jan -3.5 18:41:09 10° W 18:44:16 62° NNW 18:44:16 62° NNW visible
20 Jan -3.7 17:53:16 10° W 17:56:36 69° N 17:58:24 25° ENE visible
20 Jan -1.1 19:30:12 10° WNW 19:31:20 20° WNW 19:31:20 20° WNW visible
21 Jan -3.6 18:42:20 10° WNW 18:45:28 64° NNW 18:45:28 64° NNW visible
